Wind_Speed
4 3 3 3 3 4 4 5 5 5 5 6 6 7 7 7 8 8 8 8 8 8 9 9 9 9 9 9 8 8 9 9 9 10 10 10 11 11 10 10 10 11 11
5 4 3 3 3 4 4 5 5 6 6 7 8 7 7 8 8 8 8 8 8 9 9 9 9 10 10 10 9 9 9 9 10 10 10 11 11 11 11 11 12 12 12
5 5 4 4 4 4 5 5 6 7 7 8 8 8 8 8 8 9 9 9 9 9 9 8 9 9 9 9 9 9 9 10 10 10 11 11 12 11 11 12 12 13 13
5 5 5 5 5 5 6 6 7 8 8 9 8 8 8 9 9 10 10 9 9 9 9 9 9 9 9 9 10 10 10 10 10 11 12 12 12 13 13 12 12 13 13
7 6 6 6 6 7 7 8 8 9 9 9 8 9 9 10 10 10 10 9 9 9 9 9 8 8 8 9 9 10 11 11 11 12 13 13 13 13 14 14 14 14 14
8 8 7 7 8 8 9 9 9 9 9 9 9 9 9 10 9 9 10 9 10 9 8 8 8 8 8 9 10 10 11 11 12 13 13 15 14 13 14 14 14 15 15
8 8 9 9 9 10 10 9 9 9 10 10 10 9 10 10 10 10 9 8 9 9 9 9 9 9 9 9 11 11 12 13 13 13 14 15 15 15 15 14 14 15 15
10 10 10 10 10 11 10 10 10 10 10 11 10 10 11 11 10 10 10 9 9 10 10 10 11 9 9 9 10 11 11 12 13 14 15 15 16 16 16 16 15 15 15
11 11 11 11 11 11 11 11 11 11 12 12 12 11 11 11 11 11 11 10 10 11 12 12 12 12 11 11 11 11 12 13 14 15 16 17 17 18 17 16 15 16 16
12 11 12 12 12 13 13 12 12 12 13 14 14 13 13 12 12 11 12 12 11 12 12 12 13 13 13 12 12 12 13 13 14 15 17 18 18 18 17 17 16 17 17
13 13 13 14 14 14 14 13 12 13 14 14 14 13 13 13 12 11 11 12 12 13 13 13 13 13 14 14 13 13 14 15 15 16 17 17 17 18 18 18 18 18 18
14 14 15 15 15 15 14 14 14 14 14 14 14 13 13 13 13 13 12 13 14 14 14 15 14 14 14 14 15 15 15 16 16 17 18 18 18 18 18 19 19 18 18
15 16 16 16 16 16 16 15 15 15 14 14 14 14 14 14 14 14 14 14 14 15 15 15 15 15 15 15 16 16 16 17 17 17 17 18 18 18 18 19 19 19 18
17 16 17 17 18 17 17 16 16 16 15 15 16 16 15 16 16 16 16 16 16 16 16 17 17 17 16 16 17 17 17 17 17 18 17 17 18 18 19 19 19 19 19
19 18 18 19 19 19 18 18 17 17 17 17 17 17 17 17 17 17 18 18 18 18 18 19 19 19 19 18 18 18 18 18 18 18 18 18 18 18 19 19 19 19 20
20 20 20 20 20 20 19 19 18 18 18 19 19 18 18 19 19 19 19 19 20 20 19 20 20 20 20 20 20 19 20 20 19 19 19 20 20 19 19 19 19 20 21
21 21 21 21 21 21 21 20 20 20 20 20 20 20 20 20 20 20 20 20 20 20 20 20 21 21 21 21 21 21 21 21 21 21 21 21 21 21 20 21 21 21 21
22 21 22 22 22 22 21 21 21 21 21 21 21 21 21 21 22 22 22 21 21 21 21 21 22 22 22 22 23 23 22 22 22 22 21 21 21 21 21 21 21 22 22
23 23 23 23 23 23 23 23 22 22 22 22 22 22 22 22 22 22 22 22 23 23 23 22 22 23 23 23 24 24 23 23 22 22 22 21 21 21 22 22 22 22 22
23 24 24 24 24 24 23 23 23 23 23 23 22 22 22 22 22 22 23 23 23 23 24 23 23 23 23 23 23 24 24 24 23 23 23 22 22 22 22 22 23 23 22
24 25 25 25 24 23 23 23 23 23 23 23 22 22 23 22 23 23 23 23 23 23 24 24 24 24 24 23 23 23 24 24 24 24 24 24 23 23 23 22 23 23 23
25 26 25 24 24 23 23 23 23 23 23 23 23 23 23 23 23 23 24 24 23 24 24 24 24 24 23 23 23 23 23 24 25 25 25 25 25 24 23 23 23 23 23
24 25 25 24 23 23 24 24 23 24 23 23 23 23 23 23 23 23 23 23 24 25 24 24 24 24 24 24 24 24 24 24 25 25 26 25 26 25 24 24 25 25 25
25 25 24 24 23 23 23 24 24 24 24 24 23 23 23 23 23 24 23 24 24 24 25 25 24 25 25 24 25 25 25 25 25 25 25 26 26 26 25 26 25 25 25
25 25 25 25 24 24 24 24 24 24 24 25 24 24 24 23 23 24 23 23 24 25 26 26 25 25 25 25 26 26 25 25 25 25 25 26 26 26 26 25 26 26 25
26 27 27 26 25 25 25 25 25 25 24 25 25 25 24 24 24 24 24 24 25 25 26 26 26 25 26 26 26 26 25 25 25 25 25 26 26 26 26 26 27 27 26
Wind_Direction
359 348 337 335 331 329 323 312 312 309 304 304 303 295 288 286 289 290 286 283 278 275 275 274 265 256 253 254 254 250 248 248 250 254 255 255 257 259 259 262 262 262 264
359 344 330 324 322 318 319 315 315 306 301 305 305 298 293 290 288 287 288 286 280 279 277 271 262 258 257 257 253 249 247 247 248 253 256 257 258 261 258 261 264 264 265
350 346 324 311 307 306 306 308 304 306 304 304 300 296 293 292 291 287 286 284 279 278 277 270 262 257 256 253 252 252 251 251 251 253 255 257 258 258 258 261 264 263 263
327 332 331 317 305 301 299 298 296 299 300 304 304 301 295 293 292 289 287 280 277 275 275 272 262 256 254 255 256 257 255 254 255 256 256 259 260 259 260 263 264 264 263
316 315 316 317 310 305 301 297 291 291 295 300 301 301 299 297 293 288 285 277 273 273 274 273 264 260 255 258 260 260 258 258 258 261 260 257 262 264 265 264 263 265 268
313 309 308 309 305 307 307 302 296 290 292 294 296 295 294 294 293 290 285 276 272 269 270 269 266 264 260 258 260 259 260 260 260 263 266 260 260 265 267 265 262 263 267
308 308 306 305 303 303 306 308 302 299 297 296 295 293 295 294 292 291 285 280 276 270 270 273 272 270 268 270 269 266 263 265 265 266 271 268 261 266 266 266 266 265 266
302 303 300 301 302 301 303 303 300 301 302 303 299 295 296 294 295 294 287 277 274 275 273 270 271 271 267 271 271 269 269 268 267 266 272 273 266 267 269 267 267 266 267
295 296 297 296 298 300 302 300 296 298 301 301 297 293 296 296 291 292 290 280 273 275 275 273 274 275 271 273 275 274 274 273 272 271 272 271 270 268 269 269 267 266 268
289 290 294 294 295 296 297 296 294 296 298 299 296 292 292 293 289 287 285 282 278 276 276 272 273 276 278 275 273 273 273 273 272 271 273 272 271 268 268 268 267 267 269
284 287 290 292 294 293 292 292 292 295 297 298 297 296 295 295 292 288 284 282 280 278 275 273 273 276 278 279 276 275 275 275 273 267 269 271 273 270 267 267 268 269 271
280 283 286 290 292 292 290 290 291 293 295 296 297 296 293 293 290 286 282 281 281 281 278 276 276 276 277 279 279 279 280 278 278 274 273 270 272 272 271 269 268 268 268
275 279 282 286 288 290 289 287 288 290 291 292 293 292 291 290 287 283 282 280 280 281 282 280 279 278 278 278 280 281 282 280 281 279 274 273 272 274 274 271 267 265 266
272 276 280 284 285 286 287 286 284 286 288 290 291 290 289 288 285 283 281 279 277 278 278 279 279 279 280 280 281 282 281 281 281 281 279 277 276 276 277 275 270 266 267
270 274 277 280 281 283 283 285 284 284 286 288 289 288 287 287 285 284 282 280 278 275 275 277 278 278 279 279 281 282 281 279 281 283 281 279 278 278 279 275 270 269 270
270 271 273 277 278 280 281 281 282 284 287 287 288 289 287 286 285 284 282 281 280 277 275 276 277 278 278 279 280 282 282 280 280 282 282 280 276 276 277 272 270 269 268
269 269 271 274 276 278 278 279 280 281 283 285 285 287 288 286 284 284 283 283 282 281 278 276 276 277 279 279 279 280 282 281 280 281 280 280 279 277 275 273 271 271 269
269 268 269 272 274 277 279 279 279 281 283 284 285 285 286 286 284 283 283 284 284 283 281 278 277 277 278 278 279 279 280 280 281 281 280 279 279 278 275 273 272 272 270
268 267 267 270 272 275 277 278 278 280 282 283 284 284 284 285 283 283 283 284 283 283 282 280 278 277 277 277 278 278 278 279 279 280 280 279 277 277 277 275 273 272 270
266 266 267 269 271 273 274 275 277 279 280 282 282 281 283 284 284 284 283 283 283 282 281 280 279 277 276 277 278 277 277 277 278 280 281 280 279 277 276 275 274 273 273
262 263 265 268 270 271 272 273 276 277 278 281 281 281 282 282 284 285 283 283 283 282 281 280 280 278 278 279 280 279 277 276 277 278 279 279 279 279 278 276 276 276 277
263 265 266 268 269 270 271 272 274 276 278 281 283 282 282 282 284 285 283 282 282 282 280 279 280 279 279 279 280 281 278 276 277 276 277 278 277 277 276 274 276 276 277
264 266 265 267 268 269 271 273 275 276 278 280 282 282 283 282 282 284 282 280 281 281 280 279 280 280 279 278 279 280 280 279 278 276 275 277 277 275 275 275 274 274 275
265 265 264 265 267 269 272 274 275 276 278 280 282 283 282 281 282 283 282 281 281 281 281 281 280 280 279 278 279 280 280 279 280 278 277 277 276 275 275 277 276 276 275
263 264 264 265 267 270 272 274 276 276 277 278 280 283 281 281 283 284 283 282 282 283 282 283 281 280 280 279 279 279 279 278 277 277 278 278 278 277 276 276 277 277 275
260 263 264 265 267 269 271 273 275 275 276 278 280 281 281 280 281 283 283 284 284 284 283 281 280 281 281 280 279 278 278 277 278 278 278 279 278 277 276 276 277 276 275
Height
5870 5870 5870 5870 5870 5870 5869 5869 5869 5869 5869 5868 5868 5867 5867 5867 5866 5865 5865 5865 5865 5864 5864 5864 5864 5864 5864 5865 5865 5866 5866 5867 5868 5869 5870 5870 5870 5871 5871 5871 5871 5871 5871
5870 5870 5870 5869 5869 5869 5869 5868 5868 5868 5867 5867 5866 5866 5865 5865 5864 5864 5863 5863 5862 5862 5862 5861 5861 5862 5862 5862 5863 5864 5864 5865 5866 5867 5867 5867 5868 5868 5868 5868 5868 5868 5868
5869 5869 5869 5868 5868 5868 5868 5867 5867 5867 5866 5865 5865 5864 5864 5863 5862 5862 5861 5861 5860 5860 5859 5859 5859 5859 5860 5860 5861 5862 5862 5863 5863 5864 5864 5864 5865 5865 5865 5865 5865 5865 5865
5868 5868 5867 5867 5867 5867 5867 5866 5866 5866 5865 5864 5863 5862 5862 5861 5860 5860 5859 5858 5858 5858 5857 5857 5857 5857 5857 5858 5859 5859 5860 5861 5861 5861 5862 5862 5862 5862 5862 5862 5862 5862 5862
5868 5867 5866 5866 5866 5866 5865 5865 5864 5864 5863 5862 5862 5861 5860 5859 5858 5857 5857 5857 5856 5856 5855 5855 5855 5855 5855 5856 5856 5857 5857 5858 5858 5859 5859 5859 5859 5859 5859 5859 5859 5859 5859
5866 5866 5865 5865 5865 5864 5864 5863 5863 5862 5861 5860 5860 5859 5858 5857 5856 5855 5855 5855 5854 5854 5854 5853 5853 5853 5853 5854 5854 5854 5855 5855 5856 5856 5856 5856 5856 5856 5856 5856 5855 5855 5855
5865 5864 5864 5863 5863 5863 5862 5861 5861 5860 5859 5858 5857 5857 5856 5855 5854 5853 5853 5852 5852 5852 5852 5851 5851 5851 5851 5852 5852 5852 5852 5853 5853 5853 5853 5852 5853 5853 5853 5853 5852 5852 5852
5863 5862 5862 5861 5861 5861 5860 5859 5859 5858 5857 5856 5855 5854 5854 5853 5852 5851 5851 5850 5850 5850 5850 5849 5849 5849 5849 5849 5849 5849 5849 5849 5849 5849 5849 5849 5849 5849 5849 5849 5849 5849 5848
5861 5861 5860 5859 5859 5858 5858 5857 5856 5856 5855 5854 5853 5852 5851 5850 5849 5849 5848 5848 5847 5847 5847 5847 5847 5846 5846 5846 5846 5846 5846 5846 5846 5846 5846 5846 5845 5845 5845 5845 5845 5845 5844
5859 5858 5858 5857 5856 5856 5855 5854 5854 5853 5852 5851 5850 5849 5849 5848 5847 5846 5846 5845 5845 5845 5844 5844 5844 5844 5844 5843 5843 5843 5844 5843 5843 5842 5842 5841 5841 5840 5841 5841 5841 5841 5840
5856 5855 5855 5854 5854 5853 5852 5851 5851 5850 5849 5848 5847 5846 5845 5845 5844 5844 5843 5842 5842 5841 5841 5841 5841 5840 5840 5840 5840 5840 5840 5839 5839 5838 5838 5837 5837 5836 5836 5836 5837 5836 5836
5852 5852 5851 5851 5850 5849 5849 5848 5847 5847 5846 5845 5844 5843 5842 5842 5841 5840 5840 5839 5839 5838 5838 5837 5837 5837 5837 5836 5837 5836 5836 5835 5835 5834 5833 5833 5832 5832 5832 5832 5832 5832 5831
5848 5848 5848 5847 5846 5846 5845 5844 5844 5843 5843 5842 5841 5840 5839 5838 5838 5837 5837 5836 5836 5835 5834 5833 5833 5833 5833 5833 5832 5832 5832 5831 5830 5829 5828 5828 5828 5827 5827 5826 5826 5826 5826
5844 5844 5843 5843 5842 5842 5841 5841 5840 5839 5839 5838 5837 5836 5835 5834 5833 5833 5832 5832 5832 5831 5831 5830 5829 5828 5828 5828 5828 5828 5827 5827 5826 5825 5824 5823 5823 5822 5821 5821 5820 5821 5821
5839 5839 5839 5838 5838 5837 5837 5836 5836 5835 5834 5833 5833 5832 5831 5830 5829 5828 5827 5827 5827 5827 5826 5825 5825 5824 5823 5823 5823 5823 5822 5822 5821 5820 5819 5818 5818 5817 5816 5815 5815 5816 5816
5833 5833 5833 5833 5833 5832 5832 5831 5831 5830 5830 5829 5828 5827 5826 5825 5824 5823 5822 5822 5821 5821 5821 5821 5819 5819 5818 5818 5818 5817 5817 5816 5815 5815 5814 5813 5813 5812 5811 5810 5810 5810 5810
5827 5827 5828 5827 5827 5827 5826 5826 5826 5825 5824 5823 5823 5822 5821 5820 5819 5817 5816 5816 5815 5815 5815 5815 5814 5813 5812 5812 5812 5811 5811 5810 5810 5809 5809 5808 5807 5807 5806 5805 5805 5805 5805
5821 5821 5821 5821 5821 5821 5820 5820 5820 5819 5819 5818 5817 5816 5815 5814 5813 5812 5811 5810 5809 5809 5809 5809 5808 5807 5806 5806 5806 5805 5805 5805 5804 5803 5803 5802 5801 5801 5800 5800 5799 5799 5799
5814 5814 5815 5815 5815 5815 5814 5814 5814 5813 5813 5812 5811 5810 5809 5808 5807 5806 5805 5804 5803 5802 5802 5801 5801 5801 5800 5800 5799 5799 5799 5798 5798 5797 5797 5796 5795 5795 5794 5794 5793 5793 5793
5807 5808 5808 5808 5808 5808 5808 5808 5807 5807 5806 5806 5805 5804 5803 5802 5801 5800 5799 5797 5796 5796 5795 5794 5794 5794 5793 5793 5792 5792 5792 5792 5792 5791 5790 5790 5789 5789 5788 5787 5787 5786 5786
5800 5800 5800 5801 5801 5801 5801 5801 5801 5801 5800 5799 5798 5797 5796 5795 5794 5793 5792 5791 5790 5789 5788 5787 5787 5786 5786 5786 5786 5785 5785 5785 5785 5784 5784 5783 5783 5782 5781 5781 5780 5780 5779
5793 5793 5793 5794 5794 5794 5795 5794 5794 5794 5793 5792 5791 5790 5789 5788 5787 5786 5785 5784 5783 5782 5781 5780 5780 5779 5779 5779 5779 5778 5778 5778 5778 5778 5777 5777 5776 5775 5774 5774 5773 5773 5773
5785 5786 5787 5787 5787 5787 5788 5788 5787 5787 5786 5786 5785 5784 5783 5782 5781 5780 5778 5777 5776 5775 5774 5773 5773 5772 5772 5772 5772 5771 5770 5770 5770 5770 5770 5769 5768 5767 5767 5766 5766 5766 5765
5778 5778 5779 5780 5780 5781 5781 5781 5780 5780 5780 5779 5778 5777 5776 5775 5775 5773 5772 5771 5770 5769 5768 5767 5766 5765 5765 5765 5764 5764 5763 5763 5763 5762 5761 5761 5760 5760 5759 5759 5758 5758 5758
5770 5771 5772 5773 5773 5774 5774 5774 5773 5773 5772 5772 5771 5770 5769 5769 5768 5767 5766 5764 5763 5762 5761 5760 5759 5758 5757 5757 5757 5756 5755 5755 5755 5754 5753 5753 5753 5752 5752 5751 5750 5750 5749
5763 5764 5765 5765 5766 5767 5767 5767 5766 5766 5765 5765 5764 5763 5763 5762 5761 5760 5759 5758 5757 5755 5754 5753 5752 5751 5750 5749 5749 5748 5747 5747 5747 5747 5746 5745 5745 5744 5744 5743 5742 5741 5741